Regional Weather Roundup
Issued by NWS Little Rock, AR

Home | Current Version | Previous Version | Text Only | Print | Product List | Glossary On
Versions: 1 2 3 4 5 6 7 8 9 10 11 12 13 14 15 16 17 18 19 20 21 22 23 24 25 26 27 28 29 30 31 32 33 34 35 36 37 38 39 40 41 42 43 44 45 46 47 48 49 50
000
ASUS44 KLZK 190012
RWRLZK

WEATHER ROUNDUP FOR ARKANSAS
NATIONAL WEATHER SERVICE LITTLE ROCK AR
700 PM CDT WED OCT 18 2017

NOTE: "FAIR" INDICATES FEW OR NO CLOUDS BELOW 12,000 FEET WITH NO
SIGNIFICANT WEATHER AND/OR OBSTRUCTIONS TO VISIBILITY.

ARZ001-003-010-029-190100-
NORTHWEST ARKANSAS

CITY           SKY/WX    TMP DP  RH WIND       PRES   REMARKS
FAYETTEVILLE   CLEAR     59  49  69 CALM      30.12R
6HR MIN TEMP:  59; 6HR MAX TEMP:  76;

FORT SMITH     CLEAR     71  51  49 E6        30.09S
6HR MIN TEMP:  71; 6HR MAX TEMP:  80;

HARRISON       PTCLDY    67  43  41 S7        30.14R
6HR MIN TEMP:  67; 6HR MAX TEMP:  78;

BENTONVILLE    CLEAR     64  45  49 S6        30.13R
6HR MIN TEMP:  64; 6HR MAX TEMP:  75;

ROGERS         CLEAR     66  45  46 S7        30.12R
6HR MIN TEMP:  66; 6HR MAX TEMP:  76;

SILOAM SPGS    CLEAR     64  46  52 SE8       30.11S
6HR MIN TEMP:  64; 6HR MAX TEMP:  75;

HIGHFILL       CLEAR     63  46  54 S9        30.11S
6HR MIN TEMP:  63; 6HR MAX TEMP:  76;

$$

ARZ004-005-016-190100-
NORTH CENTRAL ARKANSAS

CITY           SKY/WX    TMP DP  RH WIND       PRES   REMARKS
BATESVILLE     CLEAR     67  50  54 SE6       30.16S
6HR MIN TEMP:  67; 6HR MAX TEMP:  76;

FLIPPIN        CLEAR     69  46  43 SE3       30.13R
6HR MIN TEMP:  69; 6HR MAX TEMP:  80;

MTN HOME       PTCLDY    65  46  50 S6        30.12R
6HR MIN TEMP:  64; 6HR MAX TEMP:  78;

$$

ARZ040-041-190100-
WEST CENTRAL ARKANSAS

CITY           SKY/WX    TMP DP  RH WIND       PRES   REMARKS
MENA           CLEAR     70  46  43 CALM      30.14R
$$

ARZ009-017-025-026-028-190100-
NORTHEAST ARKANSAS

CITY           SKY/WX    TMP DP  RH WIND       PRES   REMARKS
CORNING        FAIR      63  52  67 S9        30.16S
JONESBORO      CLEAR     65  50  58 S6        30.17R
6HR MIN TEMP:  65; 6HR MAX TEMP:  76;

NEWPORT        CLEAR     62  50  64 S7        30.17R
6HR MIN TEMP:  62; 6HR MAX TEMP:  76;

WALNUT RIDGE   CLEAR     63  48  58 S7        30.16
6HR MIN TEMP:  63; 6HR MAX TEMP:  76;

BLYTHEVILLE    CLEAR     63  51  65 S6        30.18S
6HR MIN TEMP:  63; 6HR MAX TEMP:  74;

$$

ARZ022-023-033-042-044-190100-
CENTRAL ARKANSAS

CITY           SKY/WX    TMP DP  RH WIND       PRES   REMARKS
LITTLE ROCK    PTCLDY    67  54  63 SE5       30.15R
6HR MIN TEMP:  67; 6HR MAX TEMP:  77;

N LITTLE ROCK    N/A     70  52  52 S3        30.17R
6HR MIN TEMP:  70; 6HR MAX TEMP:  77;

JACKSONVILLE   CLEAR     64  52  64 CALM      30.14R
6HR MIN TEMP:  64; 6HR MAX TEMP:  79;

SEARCY         CLEAR     65  53  65 SE3       30.16R
6HR MIN TEMP:  65; 6HR MAX TEMP:  78;

HOT SPRINGS    CLEAR     73  50  44 SE3       30.15R
6HR MIN TEMP:  73; 6HR MAX TEMP:  79;

RUSSELLVILLE   CLEAR     69  50  50 SE3       30.11S
6HR MIN TEMP:  69; 6HR MAX TEMP:  79;

CLINTON        FAIR      63  54  72 CALM      30.14S
$$

ARZ036-190100-
EAST ARKANSAS

CITY           SKY/WX    TMP DP  RH WIND       PRES   REMARKS
WEST MEMPHIS   CLEAR     60  49  66 SE7       30.16F
6HR MIN TEMP:  59; 6HR MAX TEMP:  74;

$$

ARZ050-053-066-070-073-190100-
SOUTHWEST ARKANSAS

CITY           SKY/WX    TMP DP  RH WIND       PRES   REMARKS
ARKADELPHIA    FAIR      61  56  83 CALM      30.15R
6HR MIN TEMP:  61; 6HR MAX TEMP:  80;

CAMDEN         CLEAR     64  54  68 CALM      30.14R
TEXARKANA      CLEAR     71  48  43 S3        30.12S
6HR MIN TEMP:  71; 6HR MAX TEMP:  80;

EL DORADO      CLEAR     64  57  78 CALM      30.16R
6HR MIN TEMP:  64; 6HR MAX TEMP:  79;

DE QUEEN       CLEAR     65  52  62 CALM      30.11R
6HR MIN TEMP:  64; 6HR MAX TEMP:  80;

$$

ARZ056-057-069-190100-
SOUTHEAST ARKANSAS

CITY           SKY/WX    TMP DP  RH WIND       PRES   REMARKS
PINE BLUFF     CLEAR     67  50  54 S7        30.16R
6HR MIN TEMP:  67; 6HR MAX TEMP:  78;

STUTTGART      CLEAR     65  49  56 SE7       30.17R
6HR MIN TEMP:  65; 6HR MAX TEMP:  77;

MONTICELLO     CLEAR     64  55  72 CALM      30.16S
6HR MIN TEMP:  64; 6HR MAX TEMP:  77;


$$





USA.gov is the U.S. government's official web portal to all federal, state and local government web resources and services.